ALCOMSAT 1

Last updated on Tue Sep 22 2026 00:03:14 GMT+0000 (Coordinated Universal Time)

1 43039U 17078A 26264.41289034 -.00000189 00000+0 00000+0 0 9990 2 43039 0.0484 61.2011 0002095 111.8315 311.1252 1.00273168 32260
UTC large
Height (km)
Speed (km/s)
/
Latitude / Longitude
Inclination (degrees)
Orbital Period (minutes)
Azimuth
Elevation
Range (km)
Doppler Factor

Next 0 passes for location: London (51.5072 / 0.1276)

No passes found over London.
ALCOMSAT 1